Кандыагаш

Казахстан     49°27′12″N   57°24′24″E
темп.,
°C
ветер,
м/с
пор.,
м/с
влажн.,
%
обл.,
%
осадки,
мм/ч
давл.,
гПа
погр.,
м
1 марта, пн
пн123:00−16з5109798 0.1 1014232
02:00−18з489997 0.0 1015158
05:00−19з4810096 0.0 1017149
08:00−20з4610093 0.0 101894
11:00−17з479596 0.0 1020248
14:00−14зюз469497 0.0 1020281
17:00−14з589498 0.0 1021361
20:00−17з4898100 0.0 1022162
2 марта, вт
вт223:00−19з469997 0.1 1024117
02:00−20з4510078 0.0 102383
05:00−21з4610078 0.0 102493
08:00−22зюз4710097 0.0 1024118
11:00−19зюз589697 0.0 1025249
14:00−16зюз689385 0.0 1023302
17:00−13юз6119176 0.0 1021380
20:00−12юз7149592 0.0 1020385
3 марта, ср
ср323:00−8юз8159396 0.1 1018513
02:00−6юз81594100 0.1 1015588
05:00−4юз91594100 0.3 1013665
08:00−4юз91594100 0.4 1011711
11:00−3юз111594100 0.8 1011789
14:00−1юз101595100 0.9 1010963
17:00−1юз101595100 1.8 10081028
20:00−1юз81496100 0.9 1007743
4 марта, чт
чт423:00−2юз71297100 2.1 1007666
02:00−2юз71397100 0.8 1006642
05:00−2зюз61097100 1.8 1006452
08:00−4сз6996100 0.6 1008330
11:00−8сз699392 0.8 1011328
14:00−7зсз7109092 0.0 1014538
17:00−7зсз6109196 0.0 1017493
20:00−11з5119697 0.0 1019247
5 марта, пт
пт523:00−11зюз7139693 0.1 1021309
02:00−10юз71693100 0.0 1020375
05:00−9юз8169178 0.0 1019414
08:00−8юз919885 0.0 1019445
11:00−5юз1018853 0.0 1020584
14:00−3юз1016830 0.0 1020731
17:00−3юз916855 0.0 1020691
20:00−5юз7158965 0.0 1021402